FW1401 Weather Reports


time (UTC)temp
C
wind
direction
speed
KPH
gust
KPH
rain 1hr
cm
rain 24hr
cm
rain mn
cm
humidity
%
barometer
mb
20260504081518 9 324 0.0 4.8 0.00 0.00 0.00 68 999.9
20260504044527 17 269 11.3 27.4 0.00 0.00 0.00 43 997.0
20260504043025 16 292 8.0 25.7 0.00 0.00 0.00 43 997.3
20260504041523 17 258 11.3 29.0 0.00 0.00 0.00 42 997.6
20260504040021 17 301 12.9 22.5 0.00 0.00 0.00 41 997.9
20260504034519 17 276 9.7 30.6 0.00 0.00 0.00 41 998.3
20260504033016 17 255 11.3 25.7 0.00 0.00 0.00 41 998.8
20260504031514 17 279 9.7 25.7 0.00 0.00 0.00 40 999.2
20260504030014 18 235 8.0 27.4 0.00 0.00 0.00 38 999.6
20260504024510 18 287 9.7 22.5 0.00 0.00 0.00 37 999.7
20260504023010 19 300 11.3 22.5 0.00 0.00 0.00 36 1000.0
20260504021510 19 282 8.0 22.5 0.00 0.00 0.00 36 1000.3
20260504020003 19 294 4.8 22.5 0.00 0.00 0.00 36 1000.6
20260504014502 20 260 11.3 19.3 0.00 0.00 0.00 34 1000.8
20260504013100 20 240 6.4 16.1 0.00 0.00 0.00 33 1001.2
20260504011558 21 287 4.8 16.1 0.00 0.00 0.00 32 1001.5
20260504010100 21 296 6.4 17.7 0.00 0.00 0.00 31 1001.9
20260504004551 21 264 9.7 20.9 0.00 0.00 0.00 31 1002.2
20260504003049 22 273 8.0 20.9 0.00 0.00 0.00 30 1002.6
20260504001555 22 284 12.9 20.9 0.00 0.00 0.00 29 1002.9
20260504000046 22 304 11.3 19.3 0.00 0.00 0.00 29 1003.3
20260503234543 22 251 8.0 22.5 0.00 0.00 0.00 29 1003.6
20260503233041 22 296 11.3 29.0 0.00 0.00 0.00 29 1003.8
20260503231538 22 313 8.0 20.9 0.00 0.00 0.00 29 1004.2
20260503230050 22 282 11.3 22.5 0.00 0.00 0.00 28 1004.4
20260503224534 22 313 11.3 25.7 0.00 0.00 0.00 29 1004.8
20260503223034 22 300 11.3 25.7 0.00 0.00 0.00 28 1005.0
20260503221535 23 309 9.7 20.9 0.00 0.00 0.00 28 1005.2
20260503220034 22 303 16.1 27.4 0.00 0.00 0.00 27 1005.6
20260503214536 22 324 14.5 20.9 0.00 0.00 0.00 28 1006.0
20260503213031 22 303 11.3 29.0 0.00 0.00 0.00 29 1006.3
20260503211521 22 302 8.0 29.0 0.00 0.00 0.00 30 1006.7
20260503210020 22 300 9.7 24.1 0.00 0.00 0.00 32 1007.0
20260503204525 22 336 9.7 22.5 0.00 0.00 0.00 32 1007.4
20260503203014 21 283 11.3 24.1 0.00 0.00 0.00 31 1007.6
20260503201510 21 296 9.7 20.9 0.00 0.00 0.00 32 1007.9
20260503200007 21 324 3.2 17.7 0.00 0.00 0.00 33 1008.4
20260503194505 20 306 12.9 35.4 0.00 0.00 0.00 33 1008.9
20260503193006 21 348 8.0 14.5 0.00 0.00 0.00 33 1009.1
20260503191612 20 337 9.7 22.5 0.00 0.00 0.00 34 1009.6
20260503190058 20 294 9.7 25.7 0.00 0.00 0.00 35 1009.8
20260503184553 20 318 4.8 22.5 0.00 0.00 0.00 35 1010.1
20260503183056 19 293 6.4 24.1 0.00 0.00 0.00 35 1010.6
20260503181559 18 300 6.4 20.9 0.00 0.00 0.00 34 1011.0
20260503180050 18 334 6.4 24.1 0.00 0.00 0.00 34 1011.3
20260503174550 18 320 9.7 20.9 0.00 0.00 0.00 33 1011.7
20260503173041 17 306 6.4 19.3 0.00 0.00 0.00 35 1012.0
20260503171539 17 5 11.3 24.1 0.00 0.00 0.00 34 1012.2
20260503120104 3 331 4.8 12.9 0.00 0.00 0.00 72 1013.6